Location: Unspecified
(0.0000°N, 0.0000°E)
Time: 07:08:46
(UTC+00:00)

Vanguard 3 - Pass Details

Date: 09 December 2017
Orbit: 508 x 3264 km, 33.4° (Epoch: 15 January)

Event Time Altitude Azimuth Distance (km) Brightness Sun altitude
Rises 10:42:13 0° 250° (WSW) 4,618 10.9 61.5°
Reaches altitude 10° 10:46:22 10° 259° (W) 3,149 10.2 62.1°
Maximum altitude 10:52:28 29° 317° (NW) 1,489 8.6 62.9°
Drops below altitude 10° 10:56:34 10° 19° (NNE) 2,059 9.2 63.4°
Sets 10:58:45 0° 32° (NNE) 2,796 9.8 63.7°
